Torna al catalogo

STARLINK-36508

AttivoComunicazioniVLEO
NORAD 67410·PAYLOAD·🇺🇸 United States

Lanciato Jan 12, 2026 da Cape Canaveral Space Force Station

Loading…

Prossimi Passaggi (prossime 24 ore)

TLE

AggiornatoSource: CelesTrak SupGP

Epoca: Sep 14, 2026, 22:40 UTC

1 67410C 26005G   26257.94493056  .00030405  00000+0  11013-2 0  2579
2 67410  42.9994 249.5482 0001375 260.4420 195.1353 15.27562899    17

Traccia STARLINK-36508 in tempo reale con AllMySat

Download on the App Store